Location: Biltmore Gardens
(41.6070°N, 83.4666°W)
Time: 14:24:05
(UTC+00:00)

Hubble Space Telescope - Pass Details

Date: 14 July 2020
Orbit: 536 x 540 km, 28.5° (Epoch: 13 August)

Event Time Altitude Azimuth Distance (km) Brightness Sun altitude
Rises 01:40:13 0° 237° (WSW) 2,667 4.6 -6.0°
Reaches altitude 10° 01:43:32 10° 209° (SSW) 1,778 3.3 -6.5°
Maximum altitude 01:45:27 13° 181° (S) 1,593 2.8 -6.8°
Drops below altitude 10° 01:47:23 10° 153° (SSE) 1,779 2.9 -7.0°
Enters shadow 01:48:07 - 144° (SE) 1,934 3.0 -7.2°
